When you browse on this site, cookies collect data to enhance your experience and personalize the content and advertising you see.
Visit our Privacy Policy to learn more. By continuing to use the site, you agree to this use of cookies and data.

Hourly Weather Qui Nhon

Today, 3 July, Friday

Time Temperature Precipitation Wind Pressure Humidity
00:00 +27°C° 0.3 mm 3 mps 753 mmHg 85%
01:00 +27°C° 0.3 mm 3 mps 752 mmHg 87%
02:00 +27°C° 0.4 mm 3 mps 752 mmHg 88%
03:00 +27°C° 0.4 mm 3 mps 752 mmHg 89%
04:00 +26°C° 0.4 mm 3 mps 752 mmHg 90%
05:00 +27°C° 0 mm 3 mps 753 mmHg 89%
06:00 +27°C° 0 mm 4 mps 753 mmHg 88%
07:00 +28°C° 0 mm 4 mps 753 mmHg 87%
08:00 +30°C° 0 mm 4 mps 753 mmHg 78%
09:00 +32°C° 0 mm 4 mps 754 mmHg 69%
10:00 +34°C° 0 mm 3 mps 754 mmHg 60%
11:00 +35°C° 0.2 mm 4 mps 753 mmHg 62%
12:00 +35°C° 0.2 mm 5 mps 753 mmHg 63%
13:00 +35°C° 0.2 mm 6 mps 752 mmHg 65%
14:00 +35°C° 0.5 mm 5 mps 752 mmHg 66%
15:00 +35°C° 0.5 mm 5 mps 752 mmHg 68%
16:00 +34°C° 0.5 mm 4 mps 751 mmHg 70%
17:00 +33°C° 0.3 mm 4 mps 752 mmHg 75%
18:00 +30°C° 0.3 mm 4 mps 752 mmHg 80%
19:00 +29°C° 0.3 mm 4 mps 753 mmHg 86%
20:00 +29°C° 0.5 mm 3 mps 753 mmHg 86%
21:00 +28°C° 0.5 mm 3 mps 754 mmHg 87%
22:00 +28°C° 0.5 mm 2 mps 754 mmHg 88%
23:00 +28°C° 0.1 mm 2 mps 754 mmHg 88%

Tomorrow, 4 July, Saturday

Time Temperature Precipitation Wind Pressure Humidity
00:00 +28°C° 0.1 mm 2 mps 754 mmHg 88%
01:00 +27°C° 0.1 mm 2 mps 754 mmHg 88%
02:00 +27°C° 0.2 mm 2 mps 754 mmHg 88%
03:00 +27°C° 0.2 mm 3 mps 753 mmHg 89%
04:00 +27°C° 0.2 mm 3 mps 753 mmHg 89%
05:00 +27°C° 0.1 mm 3 mps 753 mmHg 87%
06:00 +28°C° 0.1 mm 3 mps 754 mmHg 84%
07:00 +29°C° 0.1 mm 4 mps 754 mmHg 82%
08:00 +30°C° 0 mm 4 mps 754 mmHg 74%
09:00 +33°C° 0 mm 4 mps 754 mmHg 67%
10:00 +35°C° 0 mm 4 mps 754 mmHg 59%
11:00 +35°C° 0.2 mm 4 mps 754 mmHg 60%
12:00 +35°C° 0.2 mm 4 mps 754 mmHg 62%
13:00 +35°C° 0.2 mm 4 mps 753 mmHg 63%
14:00 +35°C° 1 mm 4 mps 753 mmHg 66%
15:00 +34°C° 1 mm 4 mps 752 mmHg 68%
16:00 +34°C° 1 mm 4 mps 752 mmHg 71%
17:00 +31°C° 0 mm 3 mps 752 mmHg 73%
18:00 +30°C° 0 mm 3 mps 753 mmHg 76%
19:00 +29°C° 0 mm 2 mps 753 mmHg 79%
20:00 +28°C° 0 mm 3 mps 754 mmHg 80%
21:00 +28°C° 0 mm 3 mps 754 mmHg 82%
22:00 +27°C° 0 mm 3 mps 754 mmHg 84%
23:00 +27°C° 0 mm 3 mps 754 mmHg 85%

Day after tomorrow, 5 July, Sunday

Time Temperature Precipitation Wind Pressure Humidity
00:00 +27°C° 0 mm 3 mps 754 mmHg 86%
01:00 +27°C° 0 mm 3 mps 754 mmHg 87%
02:00 +26°C° 0 mm 2 mps 753 mmHg 86%
03:00 +26°C° 0 mm 2 mps 753 mmHg 86%
04:00 +26°C° 0 mm 2 mps 753 mmHg 86%
05:00 +27°C° 0 mm 2 mps 753 mmHg 82%
06:00 +27°C° 0 mm 2 mps 754 mmHg 79%
07:00 +28°C° 0 mm 2 mps 754 mmHg 75%
08:00 +30°C° 0 mm 2 mps 754 mmHg 67%
09:00 +32°C° 0 mm 2 mps 754 mmHg 59%
10:00 +35°C° 0 mm 2 mps 753 mmHg 51%
11:00 +36°C° 0 mm 3 mps 753 mmHg 50%
12:00 +37°C° 0 mm 3 mps 752 mmHg 48%
13:00 +37°C° 0 mm 4 mps 752 mmHg 46%
14:00 +37°C° 0 mm 4 mps 751 mmHg 49%
15:00 +36°C° 0 mm 5 mps 751 mmHg 52%
16:00 +36°C° 0 mm 5 mps 751 mmHg 56%
17:00 +34°C° 0.2 mm 5 mps 751 mmHg 65%
18:00 +32°C° 0.2 mm 5 mps 751 mmHg 74%
19:00 +29°C° 0.2 mm 4 mps 752 mmHg 84%
20:00 +29°C° 0.3 mm 4 mps 752 mmHg 85%
21:00 +28°C° 0.3 mm 4 mps 753 mmHg 87%
22:00 +28°C° 0.3 mm 4 mps 753 mmHg 88%
23:00 +28°C° 0.1 mm 3 mps 753 mmHg 87%

6 July, Monday

Time Temperature Precipitation Wind Pressure Humidity
00:00 +28°C° 0.1 mm 3 mps 753 mmHg 87%
01:00 +27°C° 0.1 mm 2 mps 753 mmHg 86%
02:00 +27°C° 0.1 mm 2 mps 752 mmHg 86%
03:00 +27°C° 0.1 mm 2 mps 752 mmHg 86%
04:00 +27°C° 0.1 mm 2 mps 752 mmHg 86%
05:00 +28°C° 0 mm 2 mps 752 mmHg 82%
06:00 +29°C° 0 mm 2 mps 753 mmHg 78%
07:00 +30°C° 0 mm 2 mps 753 mmHg 75%
08:00 +32°C° 0 mm 2 mps 753 mmHg 68%
09:00 +35°C° 0 mm 3 mps 753 mmHg 61%
10:00 +36°C° 0 mm 3 mps 753 mmHg 54%
11:00 +36°C° 0 mm 4 mps 753 mmHg 55%
12:00 +36°C° 0 mm 5 mps 752 mmHg 56%
13:00 +36°C° 0 mm 6 mps 752 mmHg 58%
14:00 +35°C° 0 mm 6 mps 752 mmHg 61%
15:00 +35°C° 0 mm 6 mps 751 mmHg 64%
16:00 +35°C° 0 mm 6 mps 751 mmHg 67%
17:00 +33°C° 0.1 mm 6 mps 751 mmHg 74%
18:00 +32°C° 0.1 mm 6 mps 752 mmHg 80%
19:00 +29°C° 0.1 mm 6 mps 752 mmHg 87%
20:00 +29°C° 0 mm 6 mps 753 mmHg 88%
21:00 +28°C° 0 mm 5 mps 754 mmHg 90%
22:00 +28°C° 0 mm 5 mps 754 mmHg 92%
23:00 +28°C° 0.1 mm 5 mps 754 mmHg 92%

7 July, Tuesday

Time Temperature Precipitation Wind Pressure Humidity
00:00 +28°C° 0.1 mm 5 mps 754 mmHg 93%
01:00 +27°C° 0.1 mm 5 mps 754 mmHg 93%
02:00 +27°C° 0 mm 4 mps 754 mmHg 93%
03:00 +27°C° 0 mm 3 mps 754 mmHg 93%
04:00 +27°C° 0 mm 2 mps 754 mmHg 92%
05:00 +28°C° 0 mm 2 mps 754 mmHg 89%
06:00 +29°C° 0 mm 2 mps 754 mmHg 86%
07:00 +29°C° 0 mm 2 mps 755 mmHg 83%
08:00 +30°C° 0.3 mm 3 mps 755 mmHg 78%
09:00 +33°C° 0.3 mm 4 mps 755 mmHg 74%
10:00 +34°C° 0.3 mm 4 mps 755 mmHg 69%
11:00 +35°C° 0.1 mm 5 mps 755 mmHg 64%
12:00 +36°C° 0.1 mm 6 mps 754 mmHg 59%
13:00 +36°C° 0.1 mm 7 mps 754 mmHg 54%
14:00 +36°C° 0.1 mm 7 mps 754 mmHg 55%
15:00 +36°C° 0.1 mm 7 mps 753 mmHg 57%
16:00 +35°C° 0.1 mm 7 mps 753 mmHg 58%
17:00 +34°C° 0 mm 6 mps 753 mmHg 63%
18:00 +32°C° 0 mm 6 mps 754 mmHg 69%
19:00 +30°C° 0 mm 6 mps 754 mmHg 74%
20:00 +29°C° 0 mm 6 mps 755 mmHg 77%
21:00 +29°C° 0 mm 6 mps 755 mmHg 80%
22:00 +29°C° 0 mm 6 mps 756 mmHg 82%
23:00 +28°C° 0 mm 6 mps 756 mmHg 83%

8 July, Wednesday

Time Temperature Precipitation Wind Pressure Humidity
00:00 +28°C° 0 mm 5 mps 755 mmHg 84%
01:00 +28°C° 0 mm 5 mps 755 mmHg 85%
02:00 +27°C° 0 mm 4 mps 755 mmHg 85%
03:00 +27°C° 0 mm 3 mps 755 mmHg 85%
04:00 +27°C° 0 mm 2 mps 755 mmHg 86%
05:00 +28°C° 0 mm 2 mps 755 mmHg 82%
06:00 +29°C° 0 mm 2 mps 756 mmHg 77%
07:00 +30°C° 0 mm 2 mps 756 mmHg 73%
08:00 +31°C° 0 mm 3 mps 756 mmHg 67%
09:00 +34°C° 0 mm 3 mps 756 mmHg 60%
10:00 +36°C° 0 mm 4 mps 756 mmHg 54%
11:00 +36°C° 0 mm 4 mps 756 mmHg 52%
12:00 +37°C° 0 mm 4 mps 755 mmHg 50%
13:00 +37°C° 0 mm 5 mps 754 mmHg 48%
14:00 +36°C° 0 mm 5 mps 754 mmHg 53%
15:00 +35°C° 0 mm 5 mps 753 mmHg 58%
16:00 +34°C° 0 mm 5 mps 753 mmHg 63%
17:00 +33°C° 0 mm 5 mps 753 mmHg 69%
18:00 +30°C° 0 mm 5 mps 754 mmHg 76%
19:00 +29°C° 0 mm 5 mps 754 mmHg 82%
20:00 +28°C° 0 mm 5 mps 755 mmHg 84%
21:00 +28°C° 0 mm 5 mps 755 mmHg 87%
22:00 +28°C° 0 mm 5 mps 756 mmHg 89%
23:00 +27°C° 0 mm 4 mps 755 mmHg 89%
Show more